User: anonymous   Login
Location: Newark
(35.8833°N, 14.5000°E)
Time: 17:00:23
(UTC+00:00)
Language:

Tiros 1 - Orbit

View from above orbital plane
View from above orbital plane
View from above satellite
View from above satellite

Ground track
Ground track

The orbit data is extracted from the following two-line orbital elements,

1    29U 60002B   19321.25511649 -.00000110  00000-0  14757-4 0  9999
2    29  48.3794 234.7459 0023840  39.1668 321.0964 14.74328593187201
Epoch (UTC): 17 November 2019 06:07:22
Eccentricity: 0.0023840
inclination: 48.3794°
perigee height: 630 km
apogee height: 664 km
right ascension of ascending node: 234.7459°
argument of perigee: 39.1668°
revolutions per day: 14.74328593
mean anomaly at epoch: 321.0964°
orbit number at epoch: 18720

The dashed part of the orbit path shows where the satellite is in the earth's shadow,  

DLR